Location: Newark
(25.4800°N, 85.7200°E)
Time: 04:33:15
(UTC+00:00)

Transit 4A - Pass Details

Date: 30 August 2019
Orbit: 865 x 980 km, 66.8° (Epoch: 18 September)

Event Time Altitude Azimuth Distance (km) Brightness Sun altitude
Rises 19:29:09 0° 347° (NNW) 3,581 11.4 -51.5°
Enters shadow 19:29:57 - 349° (NNW) 3,299 11.2 -51.4°
Reaches altitude 10° 19:31:55 10° 355° (N) 2,616 - -51.2°
Maximum altitude 19:37:30 38° 62° (ENE) 1,351 - -50.5°
Drops below altitude 10° 19:42:55 10° 129° (SE) 2,538 - -49.9°
Sets 19:45:33 0° 137° (SE) 3,461 - -49.5°
